Simultaneous Nadir Overpasses (SNOs) Predictions

Prediction of SNOs between AQUA and NPP Satellite Orbit:

Table of predicted SNOs for the next 14.0 days since TLE Epoch: 3/26/2022
Index Date (AQUA) Time (AQUA) Lat,Lon (AQUA) SZA (AQUA ) Date (NPP) Time (NPP) Lat,Lon (NPP) SZA (NPP ) Distance(km) Time Diff (sec)
1 03/27/2022 12:27:19 67.50,-142.18 103.65 03/27/2022 12:26:06 67.68,-143.38 103.92 54.92 73
2 03/27/2022 13:13:39 -77.32, 45.71 86.88 03/27/2022 13:13:39 -77.31, 45.61 86.85 2.70 0
3 03/27/2022 14:00:31 81.79, -98.73 84.47 03/27/2022 14:01:44 81.32, -98.51 84.24 52.86 73
4 03/30/2022 04:40:32 77.23, -6.38 92.20 03/30/2022 04:39:50 77.23, -6.28 92.21 2.48 42
5 03/30/2022 05:29:49 -77.69, 163.17 88.40 03/30/2022 05:30:25 -77.68, 163.08 88.41 2.20 36
6 04/01/2022 20:56:45 77.44, 110.41 90.88 04/01/2022 20:56:40 77.43, 110.37 90.89 0.94 5
7 04/01/2022 21:45:57 -78.12, -78.96 90.00 04/01/2022 21:47:09 -78.12, -78.94 90.06 0.46 72
8 04/04/2022 12:23:42 -77.15, 57.58 89.81 04/04/2022 12:22:56 -77.15, 57.60 89.78 0.67 46
9 04/04/2022 13:12:55 77.72,-132.48 89.48 04/04/2022 13:13:27 77.71,-132.57 89.48 2.31 32
10 04/07/2022 04:39:50 -77.56, 175.14 91.34 04/07/2022 04:39:41 -77.56, 175.18 91.34 0.89 9



Historial Predications of SNOs between AQUA and NPP
